{"data":{"norad_id":56549,"intl_designator":"2023-065AY","name":"STARLINK-6263","alt_names":[],"object_type":"PAYLOAD","status":"ACTIVE","operator":null,"country":"US","launch_date":"2023-05-14","launch_site_code":"AFETR","launch_vehicle":null,"mission":null,"orbit_class":"UNKNOWN","rcs_meters":null,"size_class":null,"mass_kg":null,"dimensions":null,"purposes":["comms"],"wikipedia_slug":null,"has_3d_model":false,"image_url":null,"decayed_at":null,"tle_current":{"epoch":"2026-09-20T22:35:07.612512Z","epoch_age_seconds":76710,"freshness":"FRESH","line1":"1 56549U 23065AY  26263.94106033 -.00000194  00000+0  24516-5 0  9997","line2":"2 56549  43.0032 200.8776 0000741 277.5943  82.4824 15.27577001186336","mean_motion":15.27577001,"eccentricity":7.41e-5,"inclination_deg":43.0032,"raan_deg":200.8776,"arg_perigee_deg":277.5943,"mean_anomaly_deg":82.4824,"bstar":2.4516e-6,"rev_number":18633,"period_min":94.266933781887,"perigee_km":482.54966158409,"apogee_km":483.56649069437,"semimajor_km":6861.1950761392,"source":"CELESTRAK","updated_at":"2026-09-21T09:00:33.478467Z"}}}